This is the latest recevied weather packets stored in our database for station/object W7MB. If no packets are shown the sender has not sent any weather packets the latest 10 day(s).
| Time | Temp. | Humidity | Pressure | Rain* | Wind** | Luminosity | Snow |
|---|---|---|---|---|---|---|---|
| 1778012283 | 28.89° C | 38% | 1011.2 hPa | 0 mm | - | - | - |
| 1778011923 | 28.33° C | 41% | 1011.2 hPa | 0 mm | - | - | - |
| 1778011563 | 28.33° C | 36% | 1011.3 hPa | 0 mm | - | - | - |
| 1778011204 | 29.44° C | 31% | 1011.4 hPa | 0 mm | - | - | - |
| 1778010843 | 29.44° C | 37% | 1011.5 hPa | 0 mm | - | - | - |
| 1778010483 | 28.89° C | 37% | 1011.5 hPa | 0 mm | - | - | - |
| 1778010123 | 28.33° C | 39% | 1011.5 hPa | 0 mm | - | - | - |
| 1778009763 | 28.33° C | 33% | 1011.5 hPa | 0 mm | - | - | - |
| 1778009403 | 28.33° C | 38% | 1011.5 hPa | 0 mm | - | - | - |
| 1778009043 | 28.33° C | 35% | 1011.6 hPa | 0 mm | - | - | - |
| 1778008683 | 28.33° C | 35% | 1011.7 hPa | 0 mm | - | - | - |
| 1778008323 | 27.78° C | 39% | 1011.6 hPa | 0 mm | - | - | - |
| 1778007963 | 27.78° C | 41% | 1011.7 hPa | 0 mm | - | - | - |
| 1778007603 | 27.22° C | 35% | 1011.7 hPa | 0 mm | - | - | - |
| 1778007243 | 26.67° C | 39% | 1011.7 hPa | 0 mm | - | - | - |
| 1778006883 | 26.67° C | 33% | 1011.8 hPa | 0 mm | - | - | - |
| 1778006523 | 26.11° C | 41% | 1011.9 hPa | 0 mm | - | - | - |
| 1778006163 | 25.56° C | 40% | 1011.9 hPa | 0 mm | - | - | - |
| 1778005803 | 25° C | 42% | 1012 hPa | 0 mm | - | - | - |
| 1778005443 | 24.44° C | 47% | 1012 hPa | 0 mm | - | - | - |
| 1778005083 | 24.44° C | 46% | 1012 hPa | 0 mm | - | - | - |
| 1778004723 | 23.89° C | 44% | 1012.1 hPa | 0 mm | - | - | - |
| 1778004363 | 23.89° C | 44% | 1012.1 hPa | 0 mm | - | - | - |
| 1778004004 | 23.33° C | 47% | 1012.1 hPa | 0 mm | - | - | - |
| 1778003643 | 23.33° C | 49% | 1012.1 hPa | 0 mm | - | - | - |
* Rain latest hour (hover to see other rain measurements)
** Current wind speed in m/s (hover to see current wind gust speed)